Guantanamo Bay NAS, Cuba

10:27 AM CST on December 17, 2017 (GMT -0500)
Guantanamo Bay Naval Air Station

Weather History for MUGM - October, 2017

Change the Weather History Date:

Friday, October 13, 2017

  Actual Average Record
Temperature  
Mean Temperature 82 °F -  
Max Temperature 88 °F 86 °F 91 °F (2015)
Min Temperature 75 °F 72 °F 73 °F (2000)
Cooling Degree Days 16    
Growing Degree Days 32 (Base 50)    
Moisture  
Dew Point 79 °F    
Average Humidity 94    
Maximum Humidity 100    
Minimum Humidity 80    
Precipitation  
Precipitation 0.00 in - - ()
Sea Level Pressure  
Sea Level Pressure 29.91 in    
Wind  
Wind Speed 6 mph ()    
Max Wind Speed 10 mph    
Max Gust Speed -    
Visibility 6.2 miles    
Events      
Averages and records for this station are not official NWS values.
T = Trace of Precipitation, MM = Missing Value Source: Averaged Metar Reports

Daily Weather History Graph

Daily Weather History Graph

Search for Another Location

Airport or City:

Trip Planner

Search our weather history database for the weather conditions in past years. The results will help you decide how hot, cold, wet, or windy it might be!

Date:

Astronomy

Oct. 13, 2017 Rise Set
Actual Time 6:55 AM CDT 6:38 PM CDT
Civil Twilight 6:32 AM CDT 7:00 PM CDT
Nautical Twilight 6:07 AM CDT 7:26 PM CDT
Astronomical Twilight 5:41 AM CDT 7:52 PM CDT
Moon 1:08 AM CDT (10/13) 2:30 PM CDT (10/13)
Length of Visible Light 12h 27m
Length of Day
11h 43m
Last Quarter, 37% of the Moon is Illuminated
Oct 13
Last Quarter
Oct 19
New
Oct 27
First Quarter
Nov 4
Full
Nov 10
Last Quarter

Hourly Weather History & Observations

Time (CDT) Temp. Heat Index Dew Point Humidity Pressure Visibility Wind Dir Wind Speed Gust Speed Precip Events Conditions
12:56 AM 78.1 °F - 78.1 °F 100% 29.88 in 6.2 mi North 6.9 mph - N/A   Mostly Cloudy
1:56 AM 77.0 °F - 77.0 °F 100% 29.88 in 6.2 mi North 4.6 mph - N/A   Scattered Clouds
2:56 AM 75.9 °F - 75.9 °F 100% 29.88 in 6.2 mi NNE 10.4 mph - N/A   Scattered Clouds
3:56 AM 77.0 °F - 77.0 °F 100% 29.87 in 6.2 mi NNE 6.9 mph - N/A   Scattered Clouds
4:56 AM 75.9 °F - 75.9 °F 100% 29.87 in 6.2 mi NNW 8.1 mph - N/A   Mostly Cloudy
5:56 AM 75.9 °F - 75.9 °F 100% 29.89 in 6.2 mi North 10.4 mph - N/A   Mostly Cloudy
6:56 AM 75.9 °F - 75.9 °F 100% 29.90 in 6.2 mi North 6.9 mph - N/A   Mostly Cloudy
7:56 AM 77.0 °F - 77.0 °F 100% 29.91 in 6.2 mi North 6.9 mph - N/A   Mostly Cloudy
8:56 AM 81.0 °F 89.2 °F 79.0 °F 94% 29.93 in 6.2 mi North 8.1 mph - N/A   Mostly Cloudy
9:56 AM 81.0 °F 89.2 °F 79.0 °F 94% 29.95 in 6.2 mi NNW 9.2 mph - N/A   Mostly Cloudy
10:56 AM 82.0 °F 92.8 °F 80.1 °F 94% 29.97 in 6.2 mi NNW 6.9 mph - N/A   Mostly Cloudy
11:56 AM 82.9 °F 93.8 °F 79.0 °F 88% 29.95 in 6.2 mi NNW 5.8 mph - N/A   Mostly Cloudy
12:56 PM 84.9 °F 98.9 °F 80.1 °F 85% 29.92 in 6.2 mi North 6.9 mph - N/A   Mostly Cloudy
1:56 PM 84.9 °F 97.5 °F 79.0 °F 82% 29.90 in 6.2 mi North 4.6 mph - N/A   Mostly Cloudy
2:56 PM 86.0 °F 100.8 °F 80.1 °F 82% 29.88 in 6.2 mi NNW 4.6 mph - N/A   Mostly Cloudy
3:56 PM 88.0 °F 106.2 °F 81.0 °F 80% 29.88 in 6.2 mi North 3.5 mph - N/A   Mostly Cloudy
4:56 PM 87.1 °F 103.2 °F 80.1 °F 80% 29.88 in 6.2 mi Calm Calm - N/A   Mostly Cloudy
5:56 PM 84.9 °F 100.3 °F 81.0 °F 88% 29.88 in 6.2 mi NE 3.5 mph - N/A   Mostly Cloudy
6:56 PM 82.9 °F 97.1 °F 82.0 °F 97% 29.88 in 6.2 mi North 4.6 mph - N/A   Mostly Cloudy
7:56 PM 82.0 °F 93.7 °F 81.0 °F 97% 29.90 in 6.2 mi Calm Calm - N/A   Mostly Cloudy
8:56 PM 81.0 °F 90.6 °F 81.0 °F 100% 29.93 in 6.2 mi NW 4.6 mph - N/A   Mostly Cloudy
9:56 PM 80.1 °F 87.4 °F 80.1 °F 100% 29.93 in 6.2 mi NNW 6.9 mph - N/A   Mostly Cloudy
10:56 PM 79.0 °F - 79.0 °F 100% 29.93 in 6.2 mi NNW 6.9 mph - N/A   Mostly Cloudy
11:56 PM 79.0 °F - 77.0 °F 94% 29.93 in 6.2 mi NNW 8.1 mph - N/A   Scattered Clouds